Time,TemperatureF,DewpointF,PressureIn,WindDirection,WindDirectionDegrees,WindSpeedMPH,WindSpeedGustMPH,Humidity,HourlyPrecipIn,Conditions,Clouds,dailyrainin,SolarRadiationWatts/m^2,SoftwareType,DateUTC
2013-03-05 00:01:00,22.0,21.0,-100.00,ESE,102,10.0,13.0,97,0.00,,,0.00,0.000000,,2013-03-05 06:01:00,
2013-03-05 00:11:00,22.0,21.0,-100.00,ESE,106,8.0,12.0,97,0.00,,,0.00,0.000000,,2013-03-05 06:11:00,
2013-03-05 00:32:00,22.0,21.0,-100.00,ESE,106,8.0,12.0,97,0.00,,,0.00,0.000000,,2013-03-05 06:32:00,
2013-03-05 00:42:00,22.0,21.0,-100.00,ESE,106,8.0,12.0,97,0.00,,,0.00,0.000000,,2013-03-05 06:42:00,
2013-03-05 00:52:00,22.0,21.0,-100.00,ESE,106,8.0,12.0,97,0.00,,,0.00,0.000000,,2013-03-05 06:52:00,
2013-03-05 01:01:00,22.0,21.0,-100.00,ESE,106,8.0,12.0,97,0.00,,,0.00,0.000000,,2013-03-05 07:01:00,
2013-03-05 01:11:00,22.0,21.0,-100.00,East,97,8.0,12.0,97,0.00,,,0.00,0.000000,,2013-03-05 07:11:00,
2013-03-05 01:32:00,22.0,21.0,-100.00,East,97,8.0,12.0,97,0.00,,,0.00,0.000000,,2013-03-05 07:32:00,
2013-03-05 01:42:00,22.0,21.0,-100.00,East,97,8.0,12.0,97,0.00,,,0.00,0.000000,,2013-03-05 07:42:00,
2013-03-05 01:52:00,22.0,21.0,-100.00,East,97,8.0,12.0,97,0.00,,,0.00,0.000000,,2013-03-05 07:52:00,
2013-03-05 02:02:00,22.0,21.0,-100.00,East,97,8.0,12.0,97,0.00,,,0.00,0.000000,,2013-03-05 08:02:00,
2013-03-05 02:11:00,23.0,23.0,-100.00,East,97,8.0,10.0,98,0.00,,,0.00,0.000000,,2013-03-05 08:11:00,
2013-03-05 02:42:00,23.0,23.0,-100.00,East,97,8.0,10.0,98,0.00,,,0.00,0.000000,,2013-03-05 08:42:00,
2013-03-05 02:52:00,23.0,23.0,-100.00,East,97,8.0,10.0,98,0.00,,,0.00,0.000000,,2013-03-05 08:52:00,
2013-03-05 03:01:00,23.0,23.0,-100.00,East,97,8.0,10.0,98,0.00,,,0.00,0.000000,,2013-03-05 09:01:00,
2013-03-05 03:11:00,23.0,23.0,-100.00,East,91,7.0,9.0,98,0.00,,,0.00,0.000000,,2013-03-05 09:11:00,
2013-03-05 03:32:00,23.0,23.0,-100.00,East,91,7.0,9.0,98,0.00,,,0.00,0.000000,,2013-03-05 09:32:00,
2013-03-05 03:43:00,23.0,23.0,-100.00,East,91,7.0,9.0,98,0.00,,,0.00,0.000000,,2013-03-05 09:43:00,
2013-03-05 03:52:00,23.0,23.0,-100.00,East,91,7.0,9.0,98,0.00,,,0.00,0.000000,,2013-03-05 09:52:00,
2013-03-05 04:01:00,23.0,23.0,-100.00,East,91,7.0,9.0,98,0.00,,,0.00,0.000000,,2013-03-05 10:01:00,
2013-03-05 04:11:00,23.0,23.0,-100.00,East,85,7.0,10.0,98,0.00,,,0.00,0.000000,,2013-03-05 10:11:00,
2013-03-05 04:32:00,23.0,23.0,-100.00,East,85,7.0,10.0,98,0.00,,,0.00,0.000000,,2013-03-05 10:32:00,
2013-03-05 04:42:00,23.0,23.0,-100.00,East,85,7.0,10.0,98,0.00,,,0.00,0.000000,,2013-03-05 10:42:00,
2013-03-05 04:52:00,23.0,23.0,-100.00,East,85,7.0,10.0,98,0.00,,,0.00,0.000000,,2013-03-05 10:52:00,
2013-03-05 05:01:00,23.0,23.0,-100.00,East,85,7.0,10.0,98,0.00,,,0.00,0.000000,,2013-03-05 11:01:00,
2013-03-05 05:11:00,23.0,23.0,-100.00,ENE,74,6.0,11.0,98,0.00,,,0.00,0.000000,,2013-03-05 11:11:00,
2013-03-05 05:32:00,23.0,23.0,-100.00,ENE,74,6.0,11.0,98,0.00,,,0.00,0.000000,,2013-03-05 11:32:00,
2013-03-05 05:42:00,23.0,23.0,-100.00,ENE,74,6.0,11.0,98,0.00,,,0.00,0.000000,,2013-03-05 11:42:00,
2013-03-05 05:52:00,23.0,23.0,-100.00,ENE,74,6.0,11.0,98,0.00,,,0.00,0.000000,,2013-03-05 11:52:00,
2013-03-05 06:02:00,23.0,23.0,-100.00,ENE,74,6.0,11.0,98,0.00,,,0.00,0.000000,,2013-03-05 12:02:00,
2013-03-05 06:11:00,23.0,23.0,-100.00,NE,53,6.0,8.0,98,0.00,,,0.00,0.000000,,2013-03-05 12:11:00,
2013-03-05 06:32:00,23.0,23.0,-100.00,NE,53,6.0,8.0,98,0.00,,,0.00,0.000000,,2013-03-05 12:32:00,
2013-03-05 06:42:00,23.0,23.0,-100.00,NE,53,6.0,8.0,98,0.00,,,0.00,0.000000,,2013-03-05 12:42:00,
2013-03-05 06:53:00,23.0,23.0,-100.00,NE,53,6.0,8.0,98,0.00,,,0.00,0.000000,,2013-03-05 12:53:00,
2013-03-05 07:02:00,23.0,23.0,-100.00,NE,53,6.0,8.0,98,0.00,,,0.00,0.000000,,2013-03-05 13:02:00,
2013-03-05 07:11:00,23.0,23.0,-100.00,NNE,29,6.0,8.0,98,0.00,,,0.00,2.000000,,2013-03-05 13:11:00,
2013-03-05 07:42:00,23.0,23.0,-100.00,NNE,29,6.0,8.0,98,0.00,,,0.00,2.000000,,2013-03-05 13:42:00,
2013-03-05 07:52:00,23.0,23.0,-100.00,NNE,29,6.0,8.0,98,0.00,,,0.00,2.000000,,2013-03-05 13:52:00,
2013-03-05 08:02:00,23.0,23.0,-100.00,NNE,29,6.0,8.0,98,0.00,,,0.00,2.000000,,2013-03-05 14:02:00,
2013-03-05 08:11:00,23.0,22.0,-100.00,North,11,8.0,11.0,96,0.00,,,0.00,46.000000,,2013-03-05 14:11:00,
2013-03-05 08:32:00,23.0,22.0,-100.00,North,11,8.0,11.0,96,0.00,,,0.00,46.000000,,2013-03-05 14:32:00,
2013-03-05 08:42:00,23.0,22.0,-100.00,North,11,8.0,11.0,96,0.00,,,0.00,46.000000,,2013-03-05 14:42:00,
2013-03-05 08:52:00,23.0,22.0,-100.00,North,11,8.0,11.0,96,0.00,,,0.00,46.000000,,2013-03-05 14:52:00,
2013-03-05 09:01:00,23.0,22.0,-100.00,North,11,8.0,11.0,96,0.00,,,0.00,46.000000,,2013-03-05 15:01:00,
2013-03-05 09:11:00,24.0,23.0,-100.00,NNE,17,9.0,12.0,94,0.00,,,0.00,140.000000,,2013-03-05 15:11:00,
2013-03-05 09:32:00,24.0,23.0,-100.00,NNE,17,9.0,12.0,94,0.00,,,0.00,140.000000,,2013-03-05 15:32:00,
2013-03-05 09:42:00,24.0,23.0,-100.00,NNE,17,9.0,12.0,94,0.00,,,0.00,140.000000,,2013-03-05 15:42:00,
2013-03-05 09:52:00,24.0,23.0,-100.00,NNE,17,9.0,12.0,94,0.00,,,0.00,140.000000,,2013-03-05 15:52:00,
2013-03-05 10:01:00,24.0,23.0,-100.00,NNE,17,9.0,12.0,94,0.00,,,0.00,140.000000,,2013-03-05 16:01:00,
2013-03-05 10:11:00,24.0,22.0,-100.00,North,7,11.0,14.0,92,0.00,,,-99.99,263.000000,,2013-03-05 16:11:00,
2013-03-05 10:32:00,24.0,22.0,-100.00,North,7,11.0,14.0,92,0.00,,,-99.99,263.000000,,2013-03-05 16:32:00,
2013-03-05 10:42:00,24.0,22.0,-100.00,North,7,11.0,14.0,92,0.00,,,-99.99,263.000000,,2013-03-05 16:42:00,
2013-03-05 10:52:00,24.0,22.0,-100.00,North,7,11.0,14.0,92,0.00,,,-99.99,263.000000,,2013-03-05 16:52:00,
2013-03-05 11:01:00,24.0,22.0,-100.00,North,7,11.0,14.0,92,0.00,,,-99.99,263.000000,,2013-03-05 17:01:00,
2013-03-05 11:11:00,25.0,22.0,-100.00,North,8,12.0,16.0,90,0.00,,,0.00,394.000000,,2013-03-05 17:11:00,
2013-03-05 11:32:00,25.0,22.0,-100.00,North,8,12.0,16.0,90,0.00,,,0.00,394.000000,,2013-03-05 17:32:00,
2013-03-05 11:42:00,25.0,22.0,-100.00,North,8,12.0,16.0,90,0.00,,,0.00,394.000000,,2013-03-05 17:42:00,
2013-03-05 11:52:00,25.0,22.0,-100.00,North,8,12.0,16.0,90,0.00,,,0.00,394.000000,,2013-03-05 17:52:00,
2013-03-05 12:02:00,25.0,22.0,-100.00,North,8,12.0,16.0,90,0.00,,,0.00,394.000000,,2013-03-05 18:02:00,
2013-03-05 12:11:00,26.0,23.0,-100.00,North,3,12.0,17.0,88,0.00,,,0.00,478.000000,,2013-03-05 18:11:00,
2013-03-05 12:32:00,26.0,23.0,-100.00,North,3,12.0,17.0,88,0.00,,,0.00,478.000000,,2013-03-05 18:32:00,
2013-03-05 12:42:00,26.0,23.0,-100.00,North,3,12.0,17.0,88,0.00,,,0.00,478.000000,,2013-03-05 18:42:00,
2013-03-05 12:53:00,26.0,23.0,-100.00,North,3,12.0,17.0,88,0.00,,,0.00,478.000000,,2013-03-05 18:53:00,
2013-03-05 13:01:00,26.0,23.0,-100.00,North,3,12.0,17.0,88,0.00,,,0.00,478.000000,,2013-03-05 19:01:00,
2013-03-05 13:11:00,27.0,23.0,-100.00,North,10,12.0,16.0,83,0.01,,,0.01,542.000000,,2013-03-05 19:11:00,
2013-03-05 13:32:00,27.0,23.0,-100.00,North,10,12.0,16.0,83,0.01,,,0.01,542.000000,,2013-03-05 19:32:00,
2013-03-05 13:42:00,27.0,23.0,-100.00,North,10,12.0,16.0,83,0.01,,,0.01,542.000000,,2013-03-05 19:42:00,
2013-03-05 13:52:00,27.0,23.0,-100.00,North,10,12.0,16.0,83,0.01,,,0.01,542.000000,,2013-03-05 19:52:00,
2013-03-05 14:01:00,27.0,23.0,-100.00,North,10,12.0,16.0,83,0.01,,,0.01,542.000000,,2013-03-05 20:01:00,
2013-03-05 14:11:00,27.0,22.0,-100.00,North,357,11.0,16.0,81,0.08,,,0.09,538.000000,,2013-03-05 20:11:00,
2013-03-05 14:42:00,27.0,22.0,-100.00,North,357,11.0,16.0,81,0.08,,,0.09,538.000000,,2013-03-05 20:42:00,
2013-03-05 14:52:00,27.0,22.0,-100.00,North,357,11.0,16.0,81,0.08,,,0.09,538.000000,,2013-03-05 20:52:00,
2013-03-05 15:02:00,27.0,22.0,-100.00,North,357,11.0,16.0,81,0.08,,,0.09,538.000000,,2013-03-05 21:02:00,
2013-03-05 15:11:00,29.0,21.0,-100.00,NNW,333,10.0,16.0,72,0.04,,,0.13,535.000000,,2013-03-05 21:11:00,
2013-03-05 15:32:00,29.0,21.0,-100.00,NNW,333,10.0,16.0,72,0.04,,,0.13,535.000000,,2013-03-05 21:32:00,
2013-03-05 15:42:00,29.0,21.0,-100.00,NNW,333,10.0,16.0,72,0.04,,,0.13,535.000000,,2013-03-05 21:42:00,
2013-03-05 15:52:00,29.0,21.0,-100.00,NNW,333,10.0,16.0,72,0.04,,,0.13,535.000000,,2013-03-05 21:52:00,
2013-03-05 16:01:00,29.0,21.0,-100.00,NNW,333,10.0,16.0,72,0.04,,,0.13,535.000000,,2013-03-05 22:01:00,
2013-03-05 16:11:00,27.0,22.0,-100.00,NW,326,11.0,17.0,82,0.01,,,0.14,354.000000,,2013-03-05 22:11:00,
2013-03-05 16:32:00,27.0,22.0,-100.00,NW,326,11.0,17.0,82,0.01,,,0.14,354.000000,,2013-03-05 22:32:00,
2013-03-05 16:42:00,27.0,22.0,-100.00,NW,326,11.0,17.0,82,0.01,,,0.14,354.000000,,2013-03-05 22:42:00,
2013-03-05 16:52:00,27.0,22.0,-100.00,NW,326,11.0,17.0,82,0.01,,,0.14,354.000000,,2013-03-05 22:52:00,
2013-03-05 17:01:00,27.0,22.0,-100.00,NW,326,11.0,17.0,82,0.01,,,0.14,354.000000,,2013-03-05 23:01:00,
2013-03-05 17:11:00,27.0,24.0,-100.00,NNW,344,8.0,17.0,89,0.00,,,0.14,128.000000,,2013-03-05 23:11:00,
2013-03-05 17:32:00,27.0,24.0,-100.00,NNW,344,8.0,17.0,89,0.00,,,0.14,128.000000,,2013-03-05 23:32:00,
2013-03-05 17:42:00,27.0,24.0,-100.00,NNW,344,8.0,17.0,89,0.00,,,0.14,128.000000,,2013-03-05 23:42:00,
2013-03-05 17:53:00,27.0,24.0,-100.00,NNW,344,8.0,17.0,89,0.00,,,0.14,128.000000,,2013-03-05 23:53:00,
2013-03-05 18:01:00,27.0,24.0,-100.00,NNW,344,8.0,17.0,89,0.00,,,0.14,128.000000,,2013-03-06 00:01:00,
2013-03-05 18:11:00,25.0,20.0,-100.00,NNW,344,8.0,12.0,82,0.00,,,0.14,25.000000,,2013-03-06 00:11:00,
2013-03-05 18:32:00,25.0,20.0,-100.00,NNW,344,8.0,12.0,82,0.00,,,0.14,25.000000,,2013-03-06 00:32:00,
2013-03-05 18:42:00,25.0,20.0,-100.00,NNW,344,8.0,12.0,82,0.00,,,0.14,25.000000,,2013-03-06 00:42:00,
2013-03-05 18:52:00,25.0,20.0,-100.00,NNW,344,8.0,12.0,82,0.00,,,0.14,25.000000,,2013-03-06 00:52:00,
2013-03-05 19:02:00,25.0,20.0,-100.00,NNW,344,8.0,12.0,82,0.00,,,0.14,25.000000,,2013-03-06 01:02:00,
2013-03-05 19:11:00,20.0,16.0,-100.00,NNW,328,6.0,12.0,84,0.00,,,-99.99,1.000000,,2013-03-06 01:11:00,
2013-03-05 19:42:00,20.0,16.0,-100.00,NNW,328,6.0,12.0,84,0.00,,,-99.99,1.000000,,2013-03-06 01:42:00,
2013-03-05 19:52:00,20.0,16.0,-100.00,NNW,328,6.0,12.0,84,0.00,,,-99.99,1.000000,,2013-03-06 01:52:00,
2013-03-05 20:01:00,20.0,16.0,-100.00,NNW,328,6.0,12.0,84,0.00,,,-99.99,1.000000,,2013-03-06 02:01:00,
2013-03-05 20:11:00,19.0,16.0,-100.00,NW,304,7.0,9.0,88,0.00,,,0.14,0.000000,,2013-03-06 02:11:00,
2013-03-05 20:32:00,19.0,16.0,-100.00,NW,304,7.0,9.0,88,0.00,,,0.14,0.000000,,2013-03-06 02:32:00,
2013-03-05 20:42:00,19.0,16.0,-100.00,NW,304,7.0,9.0,88,0.00,,,0.14,0.000000,,2013-03-06 02:42:00,
2013-03-05 20:52:00,19.0,16.0,-100.00,NW,304,7.0,9.0,88,0.00,,,0.14,0.000000,,2013-03-06 02:52:00,
2013-03-05 21:02:00,19.0,16.0,-100.00,NW,304,7.0,9.0,88,0.00,,,0.14,0.000000,,2013-03-06 03:02:00,
2013-03-05 21:11:00,18.0,15.0,-100.00,NW,319,8.0,10.0,87,0.00,,,0.14,0.000000,,2013-03-06 03:11:00,
2013-03-05 21:32:00,18.0,15.0,-100.00,NW,319,8.0,10.0,87,0.00,,,0.14,0.000000,,2013-03-06 03:32:00,
2013-03-05 21:42:00,18.0,15.0,-100.00,NW,319,8.0,10.0,87,0.00,,,0.14,0.000000,,2013-03-06 03:42:00,
2013-03-05 21:52:00,18.0,15.0,-100.00,NW,319,8.0,10.0,87,0.00,,,0.14,0.000000,,2013-03-06 03:52:00,
2013-03-05 22:02:00,18.0,15.0,-100.00,NW,319,8.0,10.0,87,0.00,,,0.14,0.000000,,2013-03-06 04:02:00,
2013-03-05 22:11:00,19.0,17.0,-100.00,NW,314,8.0,11.0,91,0.00,,,0.14,0.000000,,2013-03-06 04:11:00,
2013-03-05 22:32:00,19.0,17.0,-100.00,NW,314,8.0,11.0,91,0.00,,,0.14,0.000000,,2013-03-06 04:32:00,
2013-03-05 22:42:00,19.0,17.0,-100.00,NW,314,8.0,11.0,91,0.00,,,0.14,0.000000,,2013-03-06 04:42:00,
2013-03-05 22:52:00,19.0,17.0,-100.00,NW,314,8.0,11.0,91,0.00,,,0.14,0.000000,,2013-03-06 04:52:00,
2013-03-05 23:02:00,19.0,17.0,-100.00,NW,314,8.0,11.0,91,0.00,,,0.14,0.000000,,2013-03-06 05:02:00,
2013-03-05 23:11:00,19.0,17.0,-100.00,NW,310,8.0,12.0,91,0.00,,,0.14,0.000000,,2013-03-06 05:11:00,
2013-03-05 23:32:00,19.0,17.0,-100.00,NW,310,8.0,12.0,91,0.00,,,0.14,0.000000,,2013-03-06 05:32:00,
2013-03-05 23:42:00,19.0,17.0,-100.00,NW,310,8.0,12.0,91,0.00,,,0.14,0.000000,,2013-03-06 05:42:00,
2013-03-05 23:52:00,19.0,17.0,-100.00,NW,310,8.0,12.0,91,0.00,,,0.14,0.000000,,2013-03-06 05:52:00,